Flag for U.S.A. Weather past 2 weeks in Barnstable, Massachusetts, U.S.A.

Now
82 °F

Sunny.


Feels Like: 86 °F
Forecast: 71 / 85 °F
Wind: 12 mph from Southwest

Location: Barnstable Municipal-Boardman Airport

Current Time: Aug 31, 2015 at 6:07:10 PM

Latest Report: Aug 31, 2015 at 4:56 PM


Visibility: 9 mi

Pressure: 29.88 "Hg

Humidity: 67%

Dew point: 70 °F

Location of BarnstableLocation

Historic Weather in Barnstable — Graph

°F

Barnstable temperature yesterday

Maximum temperature yesterday: 83 °F (at 2:56 PM)
Minimum temperature yesterday: 67 °F (at 5:56 AM)
Average temperature yesterday: 75 °F

Past Weeks' High & Low Weather Summary

 TemperatureHumidityPressure
High87 °F (Aug 31, 12:56 PM)100% (Aug 23, 1:56 AM)30.19 "Hg (Aug 23, 1:56 AM)
Low56 °F (Aug 29, 5:56 AM)42% (Aug 29, 11:56 AM)29.86 "Hg (Aug 26, 3:56 AM)
Average74 °F81%30.02 "Hg
* Reported Aug 16 4:56 PM — Aug 31 4:56 PM, Barnstable, Weather by CustomWeather, © 2015

Note: Actual official high and low records may vary slightly from our data, if they occured in-between our weather recording intervals... More about our weather records

Advertising

Barnstable weather history for previous 24 hours

 ConditionsComfort  
Time TempWeatherWind HumidityBarometerVisibility
4:56 PM
Mon, Aug 31
82 °FSunny.12 mph67%29.88 "Hg9 mi
3:56 PM83 °FSunny.14 mph68%29.89 "Hg10 mi
2:56 PM85 °FPassing clouds.16 mph61%29.89 "Hg10 mi
1:56 PM84 °FPassing clouds.15 mph63%29.92 "Hg8 mi
12:56 PM87 °FPassing clouds.8 mph50%29.93 "Hg10 mi
11:56 AM84 °FPassing clouds.12 mph65%29.95 "Hg10 mi
10:56 AM85 °FSunny.12 mph55%29.96 "Hg10 mi
9:56 AM82 °FPassing clouds.7 mph67%29.97 "Hg10 mi
8:56 AM80 °FSunny.9 mph71%29.97 "Hg10 mi
7:56 AM76 °FSunny.7 mph85%29.97 "Hg10 mi
6:56 AM73 °FClear.6 mph90%29.97 "Hg10 mi
5:56 AM71 °FClear.7 mph93%29.96 "Hg10 mi
4:56 AM71 °FClear.8 mph93%29.96 "Hg8 mi
3:56 AM72 °FClear.7 mph91%29.98 "Hg9 mi
2:56 AM73 °FPassing clouds.12 mph88%29.98 "Hg10 mi
1:56 AM73 °FPartly cloudy.12 mph88%29.99 "Hg10 mi
12:56 AM74 °FMostly cloudy.9 mph85%30.01 "Hg10 mi
11:56 PM
Sun, Aug 30
74 °FOvercast.12 mph82%30.02 "Hg10 mi
10:56 PM73 °FPartly cloudy.12 mph81%30.02 "Hg10 mi
9:56 PM73 °FClear.10 mph81%30.03 "Hg10 mi
8:56 PM73 °FClear.13 mph81%30.03 "Hg10 mi
7:56 PM74 °FSunny.12 mph79%30.01 "Hg10 mi
6:56 PM76 °FSunny.14 mph72%29.99 "Hg10 mi
Weather by CustomWeather, © 2015

See weather overviewHow to use our weather pages